| time (UTC) | temp C | wind direction | speed KPH | gust KPH | rain 1hr cm | rain 24hr cm | rain mn cm | humidity % | barometer mb |
| 20260903041505 | 30 | 153 | 0.0 | 0.0 | 0.00 | 0.00 | 0.00 | 64 | 1013.3 |
| 20260903040008 | 30 | 228 | 0.0 | 0.0 | 0.00 | 0.00 | 0.00 | 64 | 1013.3 |
| 20260903034509 | 30 | 219 | 0.0 | 0.0 | 0.00 | 0.00 | 0.00 | 64 | 1013.4 |
| 20260903033004 | 30 | 182 | 0.0 | 4.8 | 0.00 | 0.00 | 0.00 | 63 | 1013.4 |
| 20260903031504 | 30 | 137 | 0.0 | 0.0 | 0.00 | 0.00 | 0.00 | 63 | 1013.4 |
| 20260903030003 | 30 | 127 | 0.0 | 0.0 | 0.00 | 0.00 | 0.00 | 63 | 1013.4 |
| 20260903024502 | 31 | 281 | 0.0 | 0.0 | 0.00 | 0.00 | 0.00 | 62 | 1013.4 |
| 20260903023002 | 31 | 130 | 0.0 | 1.6 | 0.00 | 0.00 | 0.00 | 60 | 1013.3 |
| 20260903021502 | 31 | 201 | 0.0 | 1.6 | 0.00 | 0.00 | 0.00 | 59 | 1013.2 |
| 20260903020001 | 31 | 166 | 0.0 | 0.0 | 0.00 | 0.00 | 0.00 | 57 | 1013.1 |
| 20260903014500 | 32 | 178 | 0.0 | 0.0 | 0.00 | 0.00 | 0.00 | 55 | 1013.0 |
| 20260903013104 | 32 | 148 | 0.0 | 4.8 | 0.00 | 0.00 | 0.00 | 54 | 1012.8 |
| 20260903011609 | 32 | 151 | 0.0 | 0.0 | 0.00 | 0.00 | 0.00 | 53 | 1012.6 |
| 20260903010117 | 33 | 152 | 0.0 | 0.0 | 0.00 | 0.00 | 0.00 | 51 | 1012.4 |
| 20260903004559 | 33 | 232 | 0.0 | 0.0 | 0.00 | 0.00 | 0.00 | 48 | 1012.5 |
| 20260903003104 | 34 | 232 | 0.0 | 0.0 | 0.00 | 0.00 | 0.00 | 46 | 1012.4 |
| 20260903001600 | 35 | 238 | 0.0 | 0.0 | 0.00 | 0.00 | 0.00 | 45 | 1012.4 |
| 20260903000057 | 35 | 121 | 0.0 | 0.0 | 0.00 | 0.00 | 0.00 | 44 | 1012.4 |
| 20260902234556 | 35 | 144 | 0.0 | 0.0 | 0.00 | 0.00 | 0.00 | 43 | 1012.4 |
| 20260902233057 | 35 | 156 | 0.0 | 0.0 | 0.00 | 0.00 | 0.00 | 42 | 1012.3 |
| 20260902231609 | 35 | 152 | 0.0 | 6.4 | 0.00 | 0.00 | 0.00 | 43 | 1012.4 |
| 20260902230055 | 35 | 280 | 0.0 | 0.0 | 0.00 | 0.00 | 0.00 | 43 | 1012.3 |
| 20260902224604 | 35 | 137 | 0.0 | 0.0 | 0.00 | 0.00 | 0.00 | 41 | 1012.3 |
| 20260902223056 | 36 | 173 | 0.0 | 0.0 | 0.00 | 0.00 | 0.00 | 41 | 1012.3 |
| 20260902221608 | 36 | 156 | 0.0 | 3.2 | 0.00 | 0.00 | 0.00 | 41 | 1012.4 |
| 20260902220058 | 36 | 111 | 0.0 | 0.0 | 0.00 | 0.00 | 0.00 | 41 | 1012.4 |
| 20260902214551 | 37 | 231 | 0.0 | 0.0 | 0.00 | 0.00 | 0.00 | 40 | 1012.5 |
| 20260902213049 | 37 | 107 | 0.0 | 3.2 | 0.00 | 0.00 | 0.00 | 41 | 1012.6 |
| 20260902211548 | 37 | 142 | 0.0 | 0.0 | 0.00 | 0.00 | 0.00 | 40 | 1012.8 |
| 20260902210048 | 37 | 197 | 0.0 | 3.2 | 0.00 | 0.00 | 0.00 | 40 | 1012.9 |
| 20260902204548 | 36 | 246 | 0.0 | 6.4 | 0.00 | 0.00 | 0.00 | 42 | 1013.1 |
| 20260902203044 | 36 | 290 | 0.0 | 0.0 | 0.00 | 0.00 | 0.00 | 44 | 1013.2 |
| 20260902201548 | 36 | 259 | 0.0 | 1.6 | 0.00 | 0.00 | 0.00 | 42 | 1013.3 |
| 20260902200036 | 36 | 241 | 0.0 | 1.6 | 0.00 | 0.00 | 0.00 | 44 | 1013.5 |
| 20260902194536 | 36 | 296 | 0.0 | 8.0 | 0.00 | 0.00 | 0.00 | 43 | 1013.7 |
| 20260902193042 | 36 | 228 | 0.0 | 4.8 | 0.00 | 0.00 | 0.00 | 45 | 1013.7 |
| 20260902191530 | 36 | 243 | 0.0 | 3.2 | 0.00 | 0.00 | 0.00 | 47 | 1014.0 |
| 20260902190027 | 35 | 198 | 0.0 | 6.4 | 0.00 | 0.00 | 0.00 | 46 | 1014.2 |
| 20260902184526 | 36 | 138 | 0.0 | 1.6 | 0.00 | 0.00 | 0.00 | 47 | 1014.4 |
| 20260902183028 | 35 | 166 | 0.0 | 14.5 | 0.00 | 0.00 | 0.00 | 48 | 1014.5 |
| 20260902181523 | 35 | 215 | 0.0 | 12.9 | 0.00 | 0.00 | 0.00 | 47 | 1014.6 |
| 20260902180020 | 35 | 280 | 0.0 | 17.7 | 0.00 | 0.00 | 0.00 | 50 | 1014.7 |
| 20260902174523 | 35 | 169 | 0.0 | 0.0 | 0.00 | 0.00 | 0.00 | 53 | 1014.9 |
| 20260902173021 | 35 | 232 | 0.0 | 16.1 | 0.00 | 0.00 | 0.00 | 51 | 1015.2 |
| 20260902171516 | 34 | 260 | 0.0 | 4.8 | 0.00 | 0.00 | 0.00 | 53 | 1015.4 |
| 20260902170011 | 34 | 360 | 0.0 | 11.3 | 0.00 | 0.00 | 0.00 | 53 | 1015.7 |
| 20260902164507 | 34 | 330 | 1.6 | 17.7 | 0.00 | 0.00 | 0.00 | 51 | 1015.8 |
| 20260902163004 | 34 | 228 | 0.0 | 11.3 | 0.00 | 0.00 | 0.00 | 53 | 1015.8 |
| 20260902161602 | 33 | 199 | 0.0 | 4.8 | 0.00 | 0.00 | 0.00 | 55 | 1015.8 |
| 20260902160108 | 33 | 203 | 0.0 | 11.3 | 0.00 | 0.00 | 0.00 | 54 | 1016.0 |
| 20260902154554 | 32 | 213 | 0.0 | 4.8 | 0.00 | 0.00 | 0.00 | 57 | 1016.1 |
| 20260902153054 | 32 | 221 | 0.0 | 12.9 | 0.00 | 0.00 | 0.00 | 57 | 1015.9 |
| 20260902151548 | 32 | 327 | 0.0 | 14.5 | 0.00 | 0.00 | 0.00 | 58 | 1015.8 |
| 20260902150046 | 31 | 229 | 0.0 | 4.8 | 0.00 | 0.00 | 0.00 | 60 | 1015.9 |
| 20260902144542 | 31 | 256 | 0.0 | 8.0 | 0.00 | 0.00 | 0.00 | 60 | 1015.9 |
| 20260902143041 | 30 | 230 | 0.0 | 8.0 | 0.00 | 0.00 | 0.00 | 63 | 1015.9 |
| 20260902141537 | 30 | 254 | 0.0 | 3.2 | 0.00 | 0.00 | 0.00 | 64 | 1015.9 |
| 20260902140032 | 29 | 237 | 0.0 | 1.6 | 0.00 | 0.00 | 0.00 | 67 | 1016.0 |
| 20260902134535 | 28 | 196 | 0.0 | 3.2 | 0.00 | 0.00 | 0.00 | 68 | 1016.2 |
| 20260902133030 | 28 | 313 | 0.0 | 0.0 | 0.00 | 0.00 | 0.00 | 69 | 1016.2 |
| 20260902131539 | 27 | 245 | 0.0 | 3.2 | 0.00 | 0.00 | 0.00 | 70 | 1016.3 |
| 20260902130027 | 27 | 209 | 0.0 | 0.0 | 0.00 | 0.00 | 0.00 | 70 | 1016.1 |
| 20260902124528 | 27 | 313 | 0.0 | 0.0 | 0.00 | 0.00 | 0.00 | 71 | 1016.0 |
| 20260902123029 | 27 | 313 | 0.0 | 0.0 | 0.00 | 0.00 | 0.00 | 71 | 1015.9 |
| 20260902121524 | 26 | 314 | 0.0 | 0.0 | 0.00 | 0.00 | 0.00 | 71 | 1015.8 |
| 20260902120022 | 26 | 167 | 0.0 | 0.0 | 0.00 | 0.00 | 0.00 | 71 | 1015.7 |
| 20260902114520 | 27 | 166 | 0.0 | 0.0 | 0.00 | 0.00 | 0.00 | 70 | 1015.5 |
| 20260902113018 | 27 | 166 | 0.0 | 0.0 | 0.00 | 0.00 | 0.00 | 70 | 1015.5 |
| 20260902111518 | 27 | 166 | 0.0 | 0.0 | 0.00 | 0.00 | 0.00 | 69 | 1015.4 |
| 20260902110020 | 27 | 190 | 0.0 | 6.4 | 0.00 | 0.00 | 0.00 | 68 | 1015.2 |
| 20260902104514 | 27 | 224 | 0.0 | 0.0 | 0.00 | 0.00 | 0.00 | 68 | 1015.2 |
| 20260902103013 | 27 | 213 | 0.0 | 3.2 | 0.00 | 0.00 | 0.00 | 68 | 1015.2 |
| 20260902101513 | 27 | 213 | 0.0 | 1.6 | 0.00 | 0.00 | 0.00 | 67 | 1015.1 |
| 20260902100014 | 27 | 219 | 0.0 | 0.0 | 0.00 | 0.00 | 0.00 | 67 | 1015.0 |
| 20260902094510 | 28 | 217 | 0.0 | 1.6 | 0.00 | 0.00 | 0.00 | 67 | 1014.9 |
| 20260902093019 | 27 | 182 | 0.0 | 12.9 | 0.00 | 0.00 | 0.00 | 68 | 1014.8 |
| 20260902091509 | 27 | 259 | 0.0 | 1.6 | 0.00 | 0.00 | 0.00 | 69 | 1014.8 |
| 20260902090008 | 27 | 211 | 0.0 | 3.2 | 0.00 | 0.00 | 0.00 | 71 | 1014.6 |
| 20260902084508 | 27 | 211 | 0.0 | 0.0 | 0.00 | 0.00 | 0.00 | 70 | 1014.7 |
| 20260902083006 | 27 | 211 | 0.0 | 0.0 | 0.00 | 0.00 | 0.00 | 71 | 1014.6 |
| 20260902081506 | 27 | 211 | 0.0 | 0.0 | 0.00 | 0.00 | 0.00 | 71 | 1014.6 |
| 20260902080004 | 27 | 211 | 0.0 | 0.0 | 0.00 | 0.00 | 0.00 | 71 | 1014.5 |
| 20260902074503 | 27 | 211 | 0.0 | 0.0 | 0.00 | 0.00 | 0.00 | 70 | 1014.6 |
| 20260902073002 | 27 | 211 | 0.0 | 0.0 | 0.00 | 0.00 | 0.00 | 70 | 1014.7 |
| 20260902071502 | 27 | 211 | 0.0 | 0.0 | 0.00 | 0.00 | 0.00 | 70 | 1014.7 |
| 20260902070100 | 27 | 211 | 0.0 | 0.0 | 0.00 | 0.00 | 0.00 | 70 | 1014.7 |
| 20260902064559 | 27 | 211 | 0.0 | 0.0 | 0.00 | 0.00 | 0.00 | 70 | 1014.7 |
| 20260902063059 | 28 | 211 | 0.0 | 0.0 | 0.00 | 0.00 | 0.00 | 70 | 1014.8 |
| 20260902060059 | 28 | 211 | 0.0 | 0.0 | 0.00 | 0.00 | 0.00 | 69 | 1014.8 |
| 20260902054610 | 28 | 211 | 0.0 | 0.0 | 0.00 | 0.00 | 0.00 | 68 | 1014.8 |
| 20260902053102 | 28 | 200 | 0.0 | 3.2 | 0.00 | 0.00 | 0.00 | 68 | 1014.7 |
| 20260902051549 | 28 | 192 | 0.0 | 0.0 | 0.00 | 0.00 | 0.00 | 67 | 1014.7 |
| 20260902050048 | 28 | 225 | 0.0 | 0.0 | 0.00 | 0.00 | 0.00 | 66 | 1014.7 |
| 20260902044551 | 29 | 215 | 0.0 | 4.8 | 0.00 | 0.00 | 0.00 | 65 | 1014.6 |
| 20260902043047 | 29 | 156 | 0.0 | 1.6 | 0.00 | 0.00 | 0.00 | 65 | 1014.5 |